Year,Month,Day,Hour,Minute,Value (Times are PST for temperature in C)
2009,08,26,00,00,14.10
2009,08,26,00,01,14.10
2009,08,26,00,02,14.10
2009,08,26,00,03,14.10
2009,08,26,00,04,14.10
2009,08,26,00,05,14.10
2009,08,26,00,06,14.10
2009,08,26,00,07,14.10
2009,08,26,00,08,14.00
2009,08,26,00,09,14.00
2009,08,26,00,10,14.00
2009,08,26,00,11,13.90
2009,08,26,00,12,13.90
2009,08,26,00,13,13.90
2009,08,26,00,14,13.80
2009,08,26,00,15,13.80
2009,08,26,00,16,13.80
2009,08,26,00,17,13.80
2009,08,26,00,18,13.70
2009,08,26,00,19,13.70
2009,08,26,00,20,13.70
2009,08,26,00,21,13.70
2009,08,26,00,22,13.70
2009,08,26,00,23,13.70
2009,08,26,00,24,13.70
2009,08,26,00,25,13.70
2009,08,26,00,26,13.70
2009,08,26,00,27,13.70
2009,08,26,00,28,13.70
2009,08,26,00,29,13.70
2009,08,26,00,30,13.70
2009,08,26,00,31,13.70
2009,08,26,00,32,13.70
2009,08,26,00,33,13.70
2009,08,26,00,34,13.70
2009,08,26,00,35,13.80
2009,08,26,00,36,13.80
2009,08,26,00,37,13.80
2009,08,26,00,38,13.80
2009,08,26,00,39,13.80
2009,08,26,00,40,13.80
2009,08,26,00,41,13.80
2009,08,26,00,42,13.80
2009,08,26,00,43,13.80
2009,08,26,00,44,13.80
2009,08,26,00,45,13.80
2009,08,26,00,46,13.80
2009,08,26,00,47,13.80
2009,08,26,00,48,13.80
2009,08,26,00,49,13.80
2009,08,26,00,50,13.80
2009,08,26,00,51,13.80
2009,08,26,00,52,13.80
2009,08,26,00,53,13.80
2009,08,26,00,54,13.80
2009,08,26,00,55,13.80
2009,08,26,00,56,13.80
2009,08,26,00,57,13.70
2009,08,26,00,58,13.70
2009,08,26,00,59,13.70
2009,08,26,01,00,13.70
2009,08,26,01,01,13.70
2009,08,26,01,02,13.70
2009,08,26,01,03,13.70
2009,08,26,01,04,13.70
2009,08,26,01,05,13.60
2009,08,26,01,06,13.60
2009,08,26,01,07,13.60
2009,08,26,01,08,13.60
2009,08,26,01,09,13.50
2009,08,26,01,10,13.50
2009,08,26,01,11,13.40
2009,08,26,01,12,13.40
2009,08,26,01,13,13.30
2009,08,26,01,14,13.30
2009,08,26,01,15,13.30
2009,08,26,01,16,13.20
2009,08,26,01,17,13.20
2009,08,26,01,18,13.20
2009,08,26,01,19,13.10
2009,08,26,01,20,13.10
2009,08,26,01,21,13.10
2009,08,26,01,22,13.10
2009,08,26,01,23,13.10
2009,08,26,01,24,13.00
2009,08,26,01,25,13.00
2009,08,26,01,26,13.00
2009,08,26,01,27,13.00
2009,08,26,01,28,12.90
2009,08,26,01,29,12.90
2009,08,26,01,30,12.90
2009,08,26,01,31,12.90
2009,08,26,01,32,12.80
2009,08,26,01,33,12.80
2009,08,26,01,34,12.80
2009,08,26,01,35,12.80
2009,08,26,01,36,12.80
2009,08,26,01,37,12.80
2009,08,26,01,38,12.80
2009,08,26,01,39,12.80
2009,08,26,01,40,12.80
2009,08,26,01,41,12.80
2009,08,26,01,42,12.70
2009,08,26,01,43,12.70
2009,08,26,01,44,12.70
2009,08,26,01,45,12.70
2009,08,26,01,46,12.70
2009,08,26,01,47,12.60
2009,08,26,01,48,12.60
2009,08,26,01,49,12.60
2009,08,26,01,50,12.50
2009,08,26,01,51,12.50
2009,08,26,01,52,12.50
2009,08,26,01,53,12.50
2009,08,26,01,54,12.40
2009,08,26,01,55,12.40
2009,08,26,01,56,12.40
2009,08,26,01,57,12.40
2009,08,26,01,58,12.40
2009,08,26,01,59,12.30
2009,08,26,02,00,12.30
2009,08,26,02,01,12.30
2009,08,26,02,02,12.30
2009,08,26,02,03,12.30
2009,08,26,02,04,12.30
2009,08,26,02,05,12.30
2009,08,26,02,06,12.30
2009,08,26,02,07,12.30
2009,08,26,02,08,12.30
2009,08,26,02,09,12.30
2009,08,26,02,10,12.30
2009,08,26,02,11,12.30
2009,08,26,02,12,12.20
2009,08,26,02,13,12.20
2009,08,26,02,14,12.20
2009,08,26,02,15,12.20
2009,08,26,02,16,12.20
2009,08,26,02,17,12.10
2009,08,26,02,18,12.10
2009,08,26,02,19,12.10
2009,08,26,02,20,12.00
2009,08,26,02,21,12.00
2009,08,26,02,22,12.00
2009,08,26,02,23,11.90
2009,08,26,02,24,11.90
2009,08,26,02,25,11.90
2009,08,26,02,26,11.80
2009,08,26,02,27,11.80
2009,08,26,02,28,11.80
2009,08,26,02,29,11.80
2009,08,26,02,30,11.80
2009,08,26,02,31,11.80
2009,08,26,02,32,11.80
2009,08,26,02,33,11.80
2009,08,26,02,34,11.80
2009,08,26,02,35,11.80
2009,08,26,02,36,11.80
2009,08,26,02,37,11.80
2009,08,26,02,38,11.80
2009,08,26,02,39,11.80
2009,08,26,02,40,11.80
2009,08,26,02,41,11.80
2009,08,26,02,42,11.80
2009,08,26,02,43,11.80
2009,08,26,02,44,11.80
2009,08,26,02,45,11.80
2009,08,26,02,46,11.80
2009,08,26,02,47,11.80
2009,08,26,02,48,11.80
2009,08,26,02,49,11.80
2009,08,26,02,50,11.80
2009,08,26,02,51,11.80
2009,08,26,02,52,11.80
2009,08,26,02,53,11.80
2009,08,26,02,54,11.80
2009,08,26,02,55,11.80
2009,08,26,02,56,11.80
2009,08,26,02,57,11.90
2009,08,26,02,58,11.90
2009,08,26,02,59,11.90
2009,08,26,03,00,11.90
2009,08,26,03,01,11.90
2009,08,26,03,02,11.90
2009,08,26,03,03,11.90
2009,08,26,03,04,11.90
2009,08,26,03,05,11.90
2009,08,26,03,06,11.90
2009,08,26,03,07,11.80
2009,08,26,03,08,11.80
2009,08,26,03,09,11.80
2009,08,26,03,10,11.80
2009,08,26,03,11,11.80
2009,08,26,03,12,11.80
2009,08,26,03,13,11.80
2009,08,26,03,14,11.80
2009,08,26,03,15,11.80
2009,08,26,03,16,11.80
2009,08,26,03,17,11.80
2009,08,26,03,18,11.80
2009,08,26,03,19,11.80
2009,08,26,03,20,11.80
2009,08,26,03,21,11.80
2009,08,26,03,22,11.80
2009,08,26,03,23,11.80
2009,08,26,03,24,11.80
2009,08,26,03,25,11.80
2009,08,26,03,26,11.80
2009,08,26,03,27,11.80
2009,08,26,03,28,11.80
2009,08,26,03,29,11.80
2009,08,26,03,30,11.80
2009,08,26,03,31,11.80
2009,08,26,03,32,11.80
2009,08,26,03,33,11.80
2009,08,26,03,34,11.80
2009,08,26,03,35,11.80
2009,08,26,03,36,11.80
2009,08,26,03,37,11.80
2009,08,26,03,38,11.80
2009,08,26,03,39,11.80
2009,08,26,03,40,11.80
2009,08,26,03,41,11.80
2009,08,26,03,42,11.80
2009,08,26,03,43,11.80
2009,08,26,03,44,11.80
2009,08,26,03,45,11.80
2009,08,26,03,46,11.80
2009,08,26,03,47,11.80
2009,08,26,03,48,11.80
2009,08,26,03,49,11.80
2009,08,26,03,50,11.80
2009,08,26,03,51,11.80
2009,08,26,03,52,11.80
2009,08,26,03,53,11.80
2009,08,26,03,54,11.80
2009,08,26,03,55,11.70
2009,08,26,03,56,11.70
2009,08,26,03,57,11.70
2009,08,26,03,58,11.70
2009,08,26,03,59,11.70
2009,08,26,04,00,11.60
2009,08,26,04,01,11.60
2009,08,26,04,02,11.60
2009,08,26,04,03,11.60
2009,08,26,04,04,11.60
2009,08,26,04,05,11.60
2009,08,26,04,06,11.60
2009,08,26,04,07,11.60
2009,08,26,04,08,11.60
2009,08,26,04,09,11.50
2009,08,26,04,10,11.40
2009,08,26,04,11,11.40
2009,08,26,04,12,11.40
2009,08,26,04,13,11.40
2009,08,26,04,14,11.40
2009,08,26,04,15,11.40
2009,08,26,04,16,11.40
2009,08,26,04,17,11.40
2009,08,26,04,18,11.30
2009,08,26,04,19,11.30
2009,08,26,04,20,11.30
2009,08,26,04,21,11.30
2009,08,26,04,22,11.20
2009,08,26,04,23,11.20
2009,08,26,04,24,11.20
2009,08,26,04,25,11.20
2009,08,26,04,26,11.20
2009,08,26,04,27,11.10
2009,08,26,04,28,11.10
2009,08,26,04,29,11.10
2009,08,26,04,30,11.10
2009,08,26,04,31,11.10
2009,08,26,04,32,11.10
2009,08,26,04,33,11.10
2009,08,26,04,34,11.10
2009,08,26,04,35,10.90
2009,08,26,04,36,10.90
2009,08,26,04,37,10.90
2009,08,26,04,38,10.90
2009,08,26,04,39,10.90
2009,08,26,04,40,10.90
2009,08,26,04,41,10.90
2009,08,26,04,42,10.90
2009,08,26,04,43,10.80
2009,08,26,04,44,10.80
2009,08,26,04,45,10.80
2009,08,26,04,46,10.80
2009,08,26,04,47,10.80
2009,08,26,04,48,10.80
2009,08,26,04,49,10.80
2009,08,26,04,50,10.70
2009,08,26,04,51,10.70
2009,08,26,04,52,10.70
2009,08,26,04,53,10.70
2009,08,26,04,54,10.60
2009,08,26,04,55,10.60
2009,08,26,04,56,10.60
2009,08,26,04,57,10.60
2009,08,26,04,58,10.60
2009,08,26,04,59,10.60
2009,08,26,05,00,10.60
2009,08,26,05,01,10.60
2009,08,26,05,02,10.60
2009,08,26,05,03,10.50
2009,08,26,05,04,10.40
2009,08,26,05,05,10.40
2009,08,26,05,06,10.40
2009,08,26,05,07,10.40
2009,08,26,05,08,10.40
2009,08,26,05,09,10.40
2009,08,26,05,10,10.40
2009,08,26,05,11,10.40
2009,08,26,05,12,10.40
2009,08,26,05,13,10.40
2009,08,26,05,14,10.40
2009,08,26,05,15,10.30
2009,08,26,05,16,10.30
2009,08,26,05,17,10.30
2009,08,26,05,18,10.30
2009,08,26,05,19,10.30
2009,08,26,05,20,10.30
2009,08,26,05,21,10.20
2009,08,26,05,22,10.20
2009,08,26,05,23,10.20
2009,08,26,05,24,10.20
2009,08,26,05,25,10.20
2009,08,26,05,26,10.20
2009,08,26,05,27,10.20
2009,08,26,05,28,10.10
2009,08,26,05,29,10.10
2009,08,26,05,30,10.10
2009,08,26,05,31,10.10
2009,08,26,05,32,10.10
2009,08,26,05,33,10.10
2009,08,26,05,34,10.10
2009,08,26,05,35,10.10
2009,08,26,05,36,10.10
2009,08,26,05,37,10.10
2009,08,26,05,38,10.00
2009,08,26,05,39,9.90
2009,08,26,05,40,9.90
2009,08,26,05,41,9.90
2009,08,26,05,42,9.90
2009,08,26,05,43,9.90
2009,08,26,05,44,9.90
2009,08,26,05,45,9.90
2009,08,26,05,46,9.90
2009,08,26,05,47,9.90
2009,08,26,05,48,9.90
2009,08,26,05,49,9.80
2009,08,26,05,50,9.80
2009,08,26,05,51,9.80
2009,08,26,05,52,9.80
2009,08,26,05,53,9.80
2009,08,26,05,54,9.80
2009,08,26,05,55,9.80
2009,08,26,05,56,9.80
2009,08,26,05,57,9.80
2009,08,26,05,58,9.80
2009,08,26,05,59,9.80
2009,08,26,06,00,9.80
2009,08,26,06,01,9.70
2009,08,26,06,02,9.70
2009,08,26,06,03,9.70
2009,08,26,06,04,9.70
2009,08,26,06,05,9.70
2009,08,26,06,06,9.70
2009,08,26,06,07,9.70
2009,08,26,06,08,9.70
2009,08,26,06,09,9.70
2009,08,26,06,10,9.70
2009,08,26,06,11,9.70
2009,08,26,06,12,9.60
2009,08,26,06,13,9.60
2009,08,26,06,14,9.60
2009,08,26,06,15,9.60
2009,08,26,06,16,9.60
2009,08,26,06,17,9.60
2009,08,26,06,18,9.60
2009,08,26,06,19,9.60
2009,08,26,06,20,9.60
2009,08,26,06,21,9.60
2009,08,26,06,22,9.60
2009,08,26,06,23,9.50
2009,08,26,06,24,9.50
2009,08,26,06,25,9.50
2009,08,26,06,26,9.50
2009,08,26,06,27,9.50
2009,08,26,06,28,9.50
2009,08,26,06,29,9.50
2009,08,26,06,30,9.50
2009,08,26,06,31,9.40
2009,08,26,06,32,9.40
2009,08,26,06,33,9.40
2009,08,26,06,34,9.40
2009,08,26,06,35,9.40
2009,08,26,06,36,9.40
2009,08,26,06,37,9.30
2009,08,26,06,38,9.30
2009,08,26,06,39,9.30
2009,08,26,06,40,9.30
2009,08,26,06,41,9.30
2009,08,26,06,42,9.40
2009,08,26,06,43,9.40
2009,08,26,06,44,9.40
2009,08,26,06,45,9.30
2009,08,26,06,46,9.30
2009,08,26,06,47,9.30
2009,08,26,06,48,9.30
2009,08,26,06,49,9.40
2009,08,26,06,50,9.40
2009,08,26,06,51,9.40
2009,08,26,06,52,9.40
2009,08,26,06,53,9.40
2009,08,26,06,54,9.40
2009,08,26,06,55,9.40
2009,08,26,06,56,9.50
2009,08,26,06,57,9.50
2009,08,26,06,58,9.50
2009,08,26,06,59,9.60
2009,08,26,07,00,9.60
2009,08,26,07,01,9.60
2009,08,26,07,02,9.70
2009,08,26,07,03,9.70
2009,08,26,07,04,9.70
2009,08,26,07,05,9.70
2009,08,26,07,06,9.70
2009,08,26,07,07,9.80
2009,08,26,07,08,9.80
2009,08,26,07,09,9.90
2009,08,26,07,10,9.90
2009,08,26,07,11,9.90
2009,08,26,07,12,9.90
2009,08,26,07,13,10.00
2009,08,26,07,14,10.10
2009,08,26,07,15,10.10
2009,08,26,07,16,10.10
2009,08,26,07,17,10.20
2009,08,26,07,18,10.20
2009,08,26,07,19,10.30
2009,08,26,07,20,10.40
2009,08,26,07,21,10.40
2009,08,26,07,22,10.50
2009,08,26,07,23,10.60
2009,08,26,07,24,10.60
2009,08,26,07,25,10.70
2009,08,26,07,26,10.70
2009,08,26,07,27,10.80
2009,08,26,07,28,10.90
2009,08,26,07,29,10.90
2009,08,26,07,30,11.00
2009,08,26,07,31,11.10
2009,08,26,07,32,11.10
2009,08,26,07,33,11.20
2009,08,26,07,34,11.30
2009,08,26,07,35,11.40
2009,08,26,07,36,11.50
2009,08,26,07,37,11.60
2009,08,26,07,38,11.60
2009,08,26,07,39,11.80
2009,08,26,07,40,11.80
2009,08,26,07,41,11.80
2009,08,26,07,42,11.90
2009,08,26,07,43,12.00
2009,08,26,07,44,12.00
2009,08,26,07,45,12.10
2009,08,26,07,46,12.20
2009,08,26,07,47,12.20
2009,08,26,07,48,12.30
2009,08,26,07,49,12.30
2009,08,26,07,50,12.40
2009,08,26,07,51,12.50
2009,08,26,07,52,12.50
2009,08,26,07,53,12.60
2009,08,26,07,54,12.70
2009,08,26,07,55,12.80
2009,08,26,07,56,12.90
2009,08,26,07,57,13.00
2009,08,26,07,58,13.10
2009,08,26,07,59,13.20
2009,08,26,08,00,13.30
2009,08,26,08,01,13.30
2009,08,26,08,02,13.40
2009,08,26,08,03,13.50
2009,08,26,08,04,13.60
2009,08,26,08,05,13.70
2009,08,26,08,06,13.70
2009,08,26,08,07,13.90
2009,08,26,08,08,14.00
2009,08,26,08,09,14.10
2009,08,26,08,10,14.20
2009,08,26,08,11,14.30
2009,08,26,08,12,14.40
2009,08,26,08,13,14.50
2009,08,26,08,14,14.50
2009,08,26,08,15,14.60
2009,08,26,08,16,14.70
2009,08,26,08,17,14.80
2009,08,26,08,18,14.90
2009,08,26,08,19,15.00
2009,08,26,08,20,15.10
2009,08,26,08,21,15.10
2009,08,26,08,22,15.20
2009,08,26,08,23,15.30
2009,08,26,08,24,15.30
2009,08,26,08,25,15.50
2009,08,26,08,26,15.60
2009,08,26,08,27,15.70
2009,08,26,08,28,15.80
2009,08,26,08,29,15.80
2009,08,26,08,30,15.90
2009,08,26,08,31,15.90
2009,08,26,08,32,15.90
2009,08,26,08,33,16.00
2009,08,26,08,34,16.10
2009,08,26,08,35,16.10
2009,08,26,08,36,16.10
2009,08,26,08,37,15.90
2009,08,26,08,38,15.80
2009,08,26,08,39,15.80
2009,08,26,08,40,15.70
2009,08,26,08,41,15.60
2009,08,26,08,42,15.50
2009,08,26,08,43,15.50
2009,08,26,08,44,15.40
2009,08,26,08,45,15.50
2009,08,26,08,46,15.50
2009,08,26,08,47,15.60
2009,08,26,08,48,15.60
2009,08,26,08,49,15.70
2009,08,26,08,50,15.70
2009,08,26,08,51,15.70
2009,08,26,08,52,15.80
2009,08,26,08,53,15.80
2009,08,26,08,54,15.90
2009,08,26,08,55,16.00
2009,08,26,08,56,16.10
2009,08,26,08,57,16.20
2009,08,26,08,58,16.30
2009,08,26,08,59,16.30
2009,08,26,09,00,16.40
2009,08,26,09,01,16.50
2009,08,26,09,02,16.60
2009,08,26,09,03,16.60
2009,08,26,09,04,16.60
2009,08,26,09,05,16.70
2009,08,26,09,06,16.70
2009,08,26,09,07,16.70
2009,08,26,09,08,16.70
2009,08,26,09,09,16.70
2009,08,26,09,10,16.70
2009,08,26,09,11,16.70
2009,08,26,09,12,16.70
2009,08,26,09,13,16.70
2009,08,26,09,14,16.70
2009,08,26,09,15,16.70
2009,08,26,09,16,16.60
2009,08,26,09,17,16.60
2009,08,26,09,18,16.60
2009,08,26,09,19,16.70
2009,08,26,09,20,16.70
2009,08,26,09,21,16.70
2009,08,26,09,22,16.70
2009,08,26,09,23,16.70
2009,08,26,09,24,16.70
2009,08,26,09,25,16.70
2009,08,26,09,26,16.70
2009,08,26,09,27,16.50
2009,08,26,09,28,16.40
2009,08,26,09,29,16.40
2009,08,26,09,30,16.50
2009,08,26,09,31,16.60
2009,08,26,09,32,16.60
2009,08,26,09,33,16.60
2009,08,26,09,34,16.60
2009,08,26,09,35,16.60
2009,08,26,09,36,16.60
2009,08,26,09,37,16.60
2009,08,26,09,38,16.60
2009,08,26,09,39,16.60
2009,08,26,09,40,16.70
2009,08,26,09,41,16.70
2009,08,26,09,42,16.70
2009,08,26,09,43,16.80
2009,08,26,09,44,16.90
2009,08,26,09,45,16.90
2009,08,26,09,46,16.90
2009,08,26,09,47,17.00
2009,08,26,09,48,17.10
2009,08,26,09,49,17.20
2009,08,26,09,50,17.30
2009,08,26,09,51,17.40
2009,08,26,09,52,17.40
2009,08,26,09,53,17.50
2009,08,26,09,54,17.60
2009,08,26,09,55,17.70
2009,08,26,09,56,17.70
2009,08,26,09,57,17.80
2009,08,26,09,58,17.80
2009,08,26,09,59,17.80
2009,08,26,10,00,17.80
2009,08,26,10,01,17.90
2009,08,26,10,02,17.90
2009,08,26,10,03,17.90
2009,08,26,10,04,17.90
2009,08,26,10,05,18.10
2009,08,26,10,06,18.00
2009,08,26,10,07,17.90
2009,08,26,10,08,17.90
2009,08,26,10,09,17.90
2009,08,26,10,10,17.80
2009,08,26,10,11,17.80
2009,08,26,10,12,17.70
2009,08,26,10,13,17.70
2009,08,26,10,14,17.60
2009,08,26,10,15,17.70
2009,08,26,10,16,17.60
2009,08,26,10,17,17.70
2009,08,26,10,18,17.80
2009,08,26,10,19,17.90
2009,08,26,10,20,17.90
2009,08,26,10,21,17.90
2009,08,26,10,22,17.90
2009,08,26,10,23,17.90
2009,08,26,10,24,17.90
2009,08,26,10,25,17.90
2009,08,26,10,26,17.90
2009,08,26,10,27,18.10
2009,08,26,10,28,18.10
2009,08,26,10,29,18.00
2009,08,26,10,30,17.90
2009,08,26,10,31,17.80
2009,08,26,10,32,17.80
2009,08,26,10,33,17.80
2009,08,26,10,34,17.80
2009,08,26,10,35,17.80
2009,08,26,10,36,17.90
2009,08,26,10,37,17.90
2009,08,26,10,38,18.00
2009,08,26,10,39,18.10
2009,08,26,10,40,18.20
2009,08,26,10,41,18.30
2009,08,26,10,42,18.30
2009,08,26,10,43,18.30
2009,08,26,10,44,18.30
2009,08,26,10,45,18.20
2009,08,26,10,46,18.20
2009,08,26,10,47,18.20
2009,08,26,10,48,18.10
2009,08,26,10,49,18.00
2009,08,26,10,50,17.90
2009,08,26,10,51,17.90
2009,08,26,10,52,17.70
2009,08,26,10,53,17.60
2009,08,26,10,54,17.60
2009,08,26,10,55,17.50
2009,08,26,10,56,17.50
2009,08,26,10,57,17.30
2009,08,26,10,58,17.30
2009,08,26,10,59,17.30
2009,08,26,11,00,17.20
2009,08,26,11,01,17.20
2009,08,26,11,02,17.20
2009,08,26,11,03,17.20
2009,08,26,11,04,17.20
2009,08,26,11,05,17.30
2009,08,26,11,06,17.30
2009,08,26,11,07,17.30
2009,08,26,11,08,17.30
2009,08,26,11,09,17.50
2009,08,26,11,10,17.60
2009,08,26,11,11,17.70
2009,08,26,11,12,17.80
2009,08,26,11,13,17.90
2009,08,26,11,14,18.00
2009,08,26,11,15,18.10
2009,08,26,11,16,18.40
2009,08,26,11,17,18.40
2009,08,26,11,18,18.50
2009,08,26,11,19,18.60
2009,08,26,11,20,18.60
2009,08,26,11,21,18.50
2009,08,26,11,22,18.50
2009,08,26,11,23,18.50
2009,08,26,11,24,18.50
2009,08,26,11,25,18.60
2009,08,26,11,26,18.60
2009,08,26,11,27,18.60
2009,08,26,11,28,18.60
2009,08,26,11,29,18.60
2009,08,26,11,30,18.70
2009,08,26,11,31,18.80
2009,08,26,11,32,18.90
2009,08,26,11,33,18.90
2009,08,26,11,34,18.90
2009,08,26,11,35,18.90
2009,08,26,11,36,19.00
2009,08,26,11,37,19.10
2009,08,26,11,38,19.10
2009,08,26,11,39,19.10
2009,08,26,11,40,19.10
2009,08,26,11,41,19.10
2009,08,26,11,42,19.10
2009,08,26,11,43,19.10
2009,08,26,11,44,19.10
2009,08,26,11,45,19.10
2009,08,26,11,46,19.10
2009,08,26,11,47,19.10
2009,08,26,11,48,19.10
2009,08,26,11,49,19.10
2009,08,26,11,50,19.10
2009,08,26,11,51,19.10
2009,08,26,11,52,19.10
2009,08,26,11,53,19.10
2009,08,26,11,54,19.10
2009,08,26,11,55,19.10
2009,08,26,11,56,19.10
2009,08,26,11,57,19.00
2009,08,26,11,58,18.90
2009,08,26,11,59,18.80
2009,08,26,12,00,18.70
2009,08,26,12,01,18.70
2009,08,26,12,02,18.70
2009,08,26,12,03,18.70
2009,08,26,12,04,18.70
2009,08,26,12,05,18.80
2009,08,26,12,06,18.90
2009,08,26,12,07,18.90
2009,08,26,12,08,19.10
2009,08,26,12,09,19.10
2009,08,26,12,10,19.10
2009,08,26,12,11,19.10
2009,08,26,12,12,19.00
2009,08,26,12,13,18.90
2009,08,26,12,14,18.80
2009,08,26,12,15,18.70
2009,08,26,12,16,18.70
2009,08,26,12,17,18.70
2009,08,26,12,18,18.70
2009,08,26,12,19,18.60
2009,08,26,12,20,18.60
2009,08,26,12,21,18.50
2009,08,26,12,22,18.50
2009,08,26,12,23,18.30
2009,08,26,12,24,18.10
2009,08,26,12,25,17.90
2009,08,26,12,26,17.90
2009,08,26,12,27,17.70
2009,08,26,12,28,17.70
2009,08,26,12,29,17.60
2009,08,26,12,30,17.60
2009,08,26,12,31,17.50
2009,08,26,12,32,17.50
2009,08,26,12,33,17.50
2009,08,26,12,34,17.40
2009,08,26,12,35,17.40
2009,08,26,12,36,17.30
2009,08,26,12,37,17.30
2009,08,26,12,38,17.30
2009,08,26,12,39,17.30
2009,08,26,12,40,17.40
2009,08,26,12,41,17.60
2009,08,26,12,42,17.80
2009,08,26,12,43,18.00
2009,08,26,12,44,18.20
2009,08,26,12,45,18.30
2009,08,26,12,46,18.60
2009,08,26,12,47,18.80
2009,08,26,12,48,19.10
2009,08,26,12,49,19.30
2009,08,26,12,50,19.40
2009,08,26,12,51,19.40
2009,08,26,12,52,19.30
2009,08,26,12,53,19.30
2009,08,26,12,54,19.30
2009,08,26,12,55,19.20
2009,08,26,12,56,19.10
2009,08,26,12,57,19.10
2009,08,26,12,58,19.10
2009,08,26,12,59,19.10
2009,08,26,13,00,19.10
2009,08,26,13,01,19.20
2009,08,26,13,02,19.20
2009,08,26,13,03,19.20
2009,08,26,13,04,19.10
2009,08,26,13,05,19.10
2009,08,26,13,06,19.10
2009,08,26,13,07,19.20
2009,08,26,13,08,19.30
2009,08,26,13,09,19.30
2009,08,26,13,10,19.30
2009,08,26,13,11,19.30
2009,08,26,13,12,19.20
2009,08,26,13,13,19.30
2009,08,26,13,14,19.40
2009,08,26,13,15,19.40
2009,08,26,13,16,19.40
2009,08,26,13,17,19.40
2009,08,26,13,18,19.30
2009,08,26,13,19,19.30
2009,08,26,13,20,19.30
2009,08,26,13,21,19.30
2009,08,26,13,22,19.40
2009,08,26,13,23,19.50
2009,08,26,13,24,19.60
2009,08,26,13,25,19.80
2009,08,26,13,26,19.90
2009,08,26,13,27,19.90
2009,08,26,13,28,19.90
2009,08,26,13,29,19.90
2009,08,26,13,30,19.90
2009,08,26,13,31,19.90
2009,08,26,13,32,19.90
2009,08,26,13,33,19.90
2009,08,26,13,34,19.90
2009,08,26,13,35,20.00
2009,08,26,13,36,20.10
2009,08,26,13,37,20.20
2009,08,26,13,38,20.20
2009,08,26,13,39,20.30
2009,08,26,13,40,20.30
2009,08,26,13,41,20.30
2009,08,26,13,42,20.40
2009,08,26,13,43,20.40
2009,08,26,13,44,20.50
2009,08,26,13,45,20.50
2009,08,26,13,46,20.60
2009,08,26,13,47,20.60
2009,08,26,13,48,20.60
2009,08,26,13,49,20.60
2009,08,26,13,50,20.50
2009,08,26,13,51,20.50
2009,08,26,13,52,20.50
2009,08,26,13,53,20.60
2009,08,26,13,54,20.70
2009,08,26,13,55,20.80
2009,08,26,13,56,20.80
2009,08,26,13,57,20.90
2009,08,26,13,58,21.00
2009,08,26,13,59,21.10
2009,08,26,14,00,21.20
2009,08,26,14,01,21.10
2009,08,26,14,02,21.00
2009,08,26,14,03,20.90
2009,08,26,14,04,20.90
2009,08,26,14,05,20.90
2009,08,26,14,06,20.90
2009,08,26,14,07,20.90
2009,08,26,14,08,20.80
2009,08,26,14,09,20.70
2009,08,26,14,10,20.60
2009,08,26,14,11,20.50
2009,08,26,14,12,20.50
2009,08,26,14,13,20.60
2009,08,26,14,14,20.70
2009,08,26,14,15,20.80
2009,08,26,14,16,21.00
2009,08,26,14,17,21.10
2009,08,26,14,18,21.10
2009,08,26,14,19,21.10
2009,08,26,14,20,21.20
2009,08,26,14,21,21.30
2009,08,26,14,22,21.30
2009,08,26,14,23,21.20
2009,08,26,14,24,21.20
2009,08,26,14,25,21.20
2009,08,26,14,26,21.30
2009,08,26,14,27,21.30
2009,08,26,14,28,21.20
2009,08,26,14,29,21.20
2009,08,26,14,30,21.20
2009,08,26,14,31,21.20
2009,08,26,14,32,21.20
2009,08,26,14,33,21.30
2009,08,26,14,34,21.30
2009,08,26,14,35,21.30
2009,08,26,14,36,21.30
2009,08,26,14,37,21.30
2009,08,26,14,38,21.30
2009,08,26,14,39,21.30
2009,08,26,14,40,21.30
2009,08,26,14,41,21.30
2009,08,26,14,42,21.30
2009,08,26,14,43,21.30
2009,08,26,14,44,21.40
2009,08,26,14,45,21.40
2009,08,26,14,46,21.40
2009,08,26,14,47,21.40
2009,08,26,14,48,21.40
2009,08,26,14,49,21.30
2009,08,26,14,50,21.30
2009,08,26,14,51,21.30
2009,08,26,14,52,21.30
2009,08,26,14,53,21.30
2009,08,26,14,54,21.30
2009,08,26,14,55,21.40
2009,08,26,14,56,21.50
2009,08,26,14,57,21.60
2009,08,26,14,58,21.60
2009,08,26,14,59,21.60
2009,08,26,15,00,21.60
2009,08,26,15,01,21.60
2009,08,26,15,02,21.60
2009,08,26,15,03,21.60
2009,08,26,15,04,21.60
2009,08,26,15,05,21.60
2009,08,26,15,06,21.60
2009,08,26,15,07,21.60
2009,08,26,15,08,21.60
2009,08,26,15,09,21.50
2009,08,26,15,10,21.40
2009,08,26,15,11,21.30
2009,08,26,15,12,21.30
2009,08,26,15,13,21.30
2009,08,26,15,14,21.30
2009,08,26,15,15,21.30
2009,08,26,15,16,21.20
2009,08,26,15,17,21.20
2009,08,26,15,18,21.10
2009,08,26,15,19,21.20
2009,08,26,15,20,21.20
2009,08,26,15,21,21.20
2009,08,26,15,22,21.20
2009,08,26,15,23,21.30
2009,08,26,15,24,21.30
2009,08,26,15,25,21.30
2009,08,26,15,26,21.30
2009,08,26,15,27,21.30
2009,08,26,15,28,21.20
2009,08,26,15,29,21.10
2009,08,26,15,30,21.10
2009,08,26,15,31,21.10
2009,08,26,15,32,21.10
2009,08,26,15,33,21.10
2009,08,26,15,34,21.10
2009,08,26,15,35,21.00
2009,08,26,15,36,21.00
2009,08,26,15,37,21.10
2009,08,26,15,38,21.10
2009,08,26,15,39,21.20
2009,08,26,15,40,21.20
2009,08,26,15,41,21.20
2009,08,26,15,42,21.20
2009,08,26,15,43,21.10
2009,08,26,15,44,21.10
2009,08,26,15,45,21.00
2009,08,26,15,46,21.00
2009,08,26,15,47,21.00
2009,08,26,15,48,21.00
2009,08,26,15,49,21.10
2009,08,26,15,50,21.10
2009,08,26,15,51,21.20
2009,08,26,15,52,21.30
2009,08,26,15,53,21.30
2009,08,26,15,54,21.30
2009,08,26,15,55,21.20
2009,08,26,15,56,21.20
2009,08,26,15,57,21.20
2009,08,26,15,58,21.10
2009,08,26,15,59,21.00
2009,08,26,16,00,21.00
2009,08,26,16,01,20.90
2009,08,26,16,02,20.90
2009,08,26,16,03,20.80
2009,08,26,16,04,20.80
2009,08,26,16,05,20.70
2009,08,26,16,06,20.70
2009,08,26,16,07,20.70
2009,08,26,16,08,20.70
2009,08,26,16,09,20.80
2009,08,26,16,10,20.80
2009,08,26,16,11,20.80
2009,08,26,16,12,20.90
2009,08,26,16,13,20.90
2009,08,26,16,14,20.80
2009,08,26,16,15,20.70
2009,08,26,16,16,20.70
2009,08,26,16,17,20.70
2009,08,26,16,18,20.70
2009,08,26,16,19,20.70
2009,08,26,16,20,20.80
2009,08,26,16,21,20.80
2009,08,26,16,22,20.90
2009,08,26,16,23,20.90
2009,08,26,16,24,20.90
2009,08,26,16,25,20.90
2009,08,26,16,26,21.00
2009,08,26,16,27,21.00
2009,08,26,16,28,21.00
2009,08,26,16,29,21.00
2009,08,26,16,30,20.90
2009,08,26,16,31,20.90
2009,08,26,16,32,20.90
2009,08,26,16,33,20.90
2009,08,26,16,34,21.00
2009,08,26,16,35,21.00
2009,08,26,16,36,21.00
2009,08,26,16,37,21.10
2009,08,26,16,38,21.10
2009,08,26,16,39,21.10
2009,08,26,16,40,21.10
2009,08,26,16,41,21.10
2009,08,26,16,42,21.20
2009,08,26,16,43,21.20
2009,08,26,16,44,21.20
2009,08,26,16,45,21.20
2009,08,26,16,46,21.20
2009,08,26,16,47,21.10
2009,08,26,16,48,21.00
2009,08,26,16,49,21.00
2009,08,26,16,50,20.90
2009,08,26,16,51,20.90
2009,08,26,16,52,20.90
2009,08,26,16,53,20.90
2009,08,26,16,54,20.80
2009,08,26,16,55,20.90
2009,08,26,16,56,20.80
2009,08,26,16,57,20.80
2009,08,26,16,58,20.80
2009,08,26,16,59,20.80
2009,08,26,17,00,20.80
2009,08,26,17,01,20.90
2009,08,26,17,02,20.80
2009,08,26,17,03,20.80
2009,08,26,17,04,20.80
2009,08,26,17,05,20.80
2009,08,26,17,06,20.80
2009,08,26,17,07,20.80
2009,08,26,17,08,20.80
2009,08,26,17,09,20.80
2009,08,26,17,10,20.80
2009,08,26,17,11,20.80
2009,08,26,17,12,20.80
2009,08,26,17,13,20.80
2009,08,26,17,14,20.80
2009,08,26,17,15,20.70
2009,08,26,17,16,20.70
2009,08,26,17,17,20.70
2009,08,26,17,18,20.70
2009,08,26,17,19,20.70
2009,08,26,17,20,20.60
2009,08,26,17,21,20.60
2009,08,26,17,22,20.60
2009,08,26,17,23,20.50